Regional Weather Roundup
Issued by NWS Green Bay, WI

Home | Current Version | Previous Version | Graphics & Text | Print | Product List | Glossary Off
Versions: 1 2 3 4 5 6 7 8 9 10 11 12 13 14 15 16 17 18 19 20 21 22 23 24 25 26 27 28 29 30 31 32 33 34 35 36 37 38 39 40 41 42 43 44 45 46 47 48 49 50

808
ASUS43 KGRB 262211
RWRGRB

NORTH-CENTRAL AND NORTHEAST WISCONSIN REGIONAL WEATHER ROUNDUP
NATIONAL WEATHER SERVICE GREEN BAY WI
500 PM CDT TUE JUL 26 2016

WIZ005-009-010>012-018-019-262300-
NORTH CENTRAL WISCONSIN

CITY           SKY/WX    TMP DP  RH WIND       PRES   REMARKS
IRONWOOD       MOSUNNY   82  70  65 NW10      29.92S
MANITOWISH WTR MOSUNNY   85  65  51 W10G20    29.97S
ARBOR VITAE    MOSUNNY   86  63  46 W12G20    29.98S
EAGLE RIVER    SUNNY     85  61  44 SW15      29.97F
LAND O LAKES   MOSUNNY   86  60  42 W13G20    29.98S
RHINELANDER    SUNNY     87  61  41 W14       30.00R
PHILLIPS       PTSUNNY   84  64  51 SW12G17   29.98S
ANTIGO         SUNNY     82  63  51 W12G20    30.00S
TOMAHAWK       MOSUNNY   85  62  45 W6        29.99S
MERRILL        SUNNY     86  65  48 W13       29.99S
$$

WIZ013-073-262300-
NORTHEAST WISCONSIN

CITY           SKY/WX    TMP DP  RH WIND       PRES   REMARKS
IRON MOUNTAIN  MOSUNNY   90  60  36 W9G17     29.92F
MARINETTE      SUNNY    N/A N/A N/A SW14      29.93F
OCONTO         SUNNY     86  69  55 SW9G16    29.94F HX  90
$$

WIZ017-030-035>037-045-262300-
CENTRAL WISCONSIN

CITY           SKY/WX    TMP DP  RH WIND       PRES   REMARKS
MEDFORD        SUNNY     83  66  55 SW10G18   30.00S
WAUSAU         SUNNY     86  64  47 SW10      29.97F
MOSINEE        SUNNY     84  64  51 SW14      30.01F
MARSHFIELD     SUNNY     86  65  49 SW13G20   30.00F
WISC RAPIDS    SUNNY     88  62  41 SW7G16    30.01F
STEVENS POINT  SUNNY     85  64  48 SW10G17   30.00F
WAUPACA        MOSUNNY   89  64  42 SW8       29.99F HX  90
SHAWANO        SUNNY     89  64  43 SW9G17    29.96F HX  90
CLINTONVILLE   SUNNY     88  63  42 SW12      29.97F
WAUTOMA        MOSUNNY   88  66  48 SW8       30.00F HX  90
$$

WIZ038-039-048-051-262300-
FOX VALLEY

CITY           SKY/WX    TMP DP  RH WIND       PRES   REMARKS
NWS GREEN BAY  SUNNY     85  69  58 W8        29.97F
APPLETON       MOSUNNY   84  63  48 SW9       29.98F
OSHKOSH        SUNNY     85  65  51 VRB6      30.00F
FOND DU LAC    SUNNY     87  62  43 VRB7      30.01F
$$

WIZ022-050-052-262300-
EAST CENTRAL WISCONSIN

CITY           SKY/WX    TMP DP  RH WIND       PRES   REMARKS
EPHRAIM        FAIR      84  68  57 SW8       29.95F
WASHINGTON ISL NOT AVBL
STURGEON BAY   SUNNY     87  67  51 MISG      29.97F HX  90
MANITOWOC      SUNNY     85  63  47 SW10      29.99F
SHEBOYGAN      SUNNY     85  63  47 W7        30.00F
$$

LMZ563-521-522-541>543-262300-
LAKESHORE

STATION/POSITION TIME  TEMP    WIND        PRES    VSBY  WAVE
                       AIR SEA DIR/SP/G                  HT/PER
                 (UTC) (F)     (DEG/KT/KT) (MB)    (MI)  (FT/S)
SHEBOYGAN LKSHOR 2200   78     170/ 10/ 10 1015.8F
KEWAUNEE LKSHORE 2100   66     170/  8/ 13 1015.2F
ALGOMA MARINA    2113          220/ 13/ 15   N/A
NORTHPORT PIER   2100   81     150/ 10/ 12 1013.9F
N MID LAKE BUOY  2150   73 71  200/ 16/ 17 1013.3F         2/ 3
SISTER BAY LKSHO 2106   85     220/ 14/ 18   N/A
CHAMBERS ISLAND  2100   83     180/  9/ 17 1013.9F
MENOMINEE LKSHOR 2100   81     180/ 11/ 14 1013.4F
$$




USA.gov is the U.S. government's official web portal to all federal, state and local government web resources and services.